Tel Aviv, Israel

2:07 AM IDT on September 25, 2017 (GMT +0300)
Ben Gurion

Weather History for LLBG - September, 2017

Change the Weather History Date:

Wednesday, September 13, 2017

  Actual Average Record
Temperature  
Mean Temperature 81 °F -  
Max Temperature 91 °F 83 °F 92 °F (2015)
Min Temperature 71 °F 67 °F 68 °F (2004)
Cooling Degree Days 16    
Growing Degree Days 31 (Base 50)    
Moisture  
Dew Point 69 °F    
Average Humidity 66    
Maximum Humidity 89    
Minimum Humidity 38    
Precipitation  
Precipitation 0.00 in - - ()
Sea Level Pressure  
Sea Level Pressure 29.91 in    
Wind  
Wind Speed 4 mph ()    
Max Wind Speed 14 mph    
Max Gust Speed -    
Visibility 6.1 miles    
Events      
Averages and records for this station are not official NWS values.
T = Trace of Precipitation, MM = Missing Value Source: Averaged Metar Reports

Daily Weather History Graph

Daily Weather History Graph

Search for Another Location

Airport or City:

Trip Planner

Search our weather history database for the weather conditions in past years. The results will help you decide how hot, cold, wet, or windy it might be!

Date:

Astronomy

Sep. 13, 2017 Rise Set
Actual Time 6:23 AM IDT 6:49 PM IDT
Civil Twilight 5:58 AM IDT 7:13 PM IDT
Nautical Twilight 5:29 AM IDT 7:42 PM IDT
Astronomical Twilight 5:00 AM IDT 8:11 PM IDT
Moon No Moon Rise 1:28 PM IDT (9/13)
Length of Visible Light 13h 15m
Length of Day
12h 25m
Waning Gibbous, 49% of the Moon is Illuminated
Sep 13
Waning Gibbous
Sep 20
New
Sep 28
First Quarter
Oct 5
Full
Oct 12
Last Quarter

Hourly Weather History & Observations

Time (IDT) Temp. Heat Index Dew Point Humidity Pressure Visibility Wind Dir Wind Speed Gust Speed Precip Events Conditions
12:20 AM 78.8 °F - 73.4 °F 83% 29.92 in - Variable 2.3 mph - N/A   Clear
12:50 AM 78.8 °F - 71.6 °F 78% 29.92 in - Variable 3.5 mph - N/A   Clear
1:20 AM 77.0 °F - 71.6 °F 83% 29.92 in - Variable 1.2 mph - N/A   Clear
1:50 AM 75.2 °F - 71.6 °F 89% 29.92 in - Variable 2.3 mph - N/A   Clear
2:20 AM 77.0 °F - 69.8 °F 78% 29.92 in - SE 4.6 mph - N/A   Clear
2:50 AM 75.2 °F - 68.0 °F 78% 29.92 in - Variable 2.3 mph - N/A   Clear
3:00 AM 76 °F - 69 °F 72% 29.94 in 6 mi 2.3 mph - -  
3:20 AM 75.2 °F - 69.8 °F 83% 29.92 in - SE 4.6 mph - N/A   Clear
3:50 AM 75.2 °F - 69.8 °F 83% 29.92 in - Variable 3.5 mph - N/A   Clear
4:20 AM 75.2 °F - 66.2 °F 73% 29.92 in - Variable 3.5 mph - N/A   Clear
4:50 AM 73.4 °F - 68.0 °F 83% 29.92 in - Variable 2.3 mph - N/A   Clear
5:20 AM 73.4 °F - 64.4 °F 73% 29.92 in - Variable 2.3 mph - N/A   Clear
5:50 AM 71.6 °F - 64.4 °F 78% 29.92 in 6.2 mi Variable 1.2 mph - N/A   Partly Cloudy
6:00 AM 72 °F - 62 °F 64% 29.94 in 6 mi 1.2 mph - -   Scattered Clouds
6:20 AM 71.6 °F - 60.8 °F 69% 29.92 in 6.2 mi Variable 2.3 mph - N/A   Partly Cloudy
6:35 AM 73.4 °F - 59.0 °F 61% 29.92 in 6.2 mi Variable 3.5 mph - N/A   Mostly Cloudy
6:50 AM 73.4 °F - 59.0 °F 61% 29.95 in 6.2 mi Variable 3.5 mph - N/A   Scattered Clouds
7:05 AM 73.4 °F - 59.0 °F 61% 29.95 in 6.2 mi East 4.6 mph - N/A   Scattered Clouds
7:20 AM 75.2 °F - 59.0 °F 57% 29.95 in 6.2 mi ESE 4.6 mph - N/A   Scattered Clouds
7:50 AM 77.0 °F - 60.8 °F 57% 29.95 in 6.2 mi Variable 2.3 mph - N/A   Scattered Clouds
8:20 AM 77.0 °F - 60.8 °F 57% 29.95 in 6.2 mi ESE 5.8 mph - N/A   Mostly Cloudy
8:50 AM 78.8 °F - 68.0 °F 69% 29.95 in 6.2 mi East 6.9 mph - N/A   Mostly Cloudy
9:00 AM 80 °F - 67 °F 56% 29.96 in 6 mi East 6.9 mph - -   Mostly Cloudy
9:20 AM 82.4 °F 87.2 °F 71.6 °F 70% 29.95 in 6.2 mi East 4.6 mph - N/A   Partly Cloudy
9:50 AM 82.4 °F 87.2 °F 71.6 °F 70% 29.95 in - Variable 3.5 mph - N/A   Clear
10:20 AM 86.0 °F 91.8 °F 71.6 °F 62% 29.95 in - Variable 2.3 mph - N/A   Clear
10:50 AM 89.6 °F 94.7 °F 69.8 °F 52% 29.95 in - Variable 1.2 mph - N/A   Clear
11:20 AM 89.6 °F 93.4 °F 68.0 °F 49% 29.92 in - WNW 4.6 mph - N/A   Clear
11:50 AM 91.4 °F 95.4 °F 68.0 °F 46% 29.92 in - NW 6.9 mph - N/A   Clear
12:00 PM 91 °F - 68 °F 38% 29.93 in 6 mi NW 5.8 mph - -  
12:20 PM 89.6 °F 98.2 °F 73.4 °F 59% 29.92 in - WNW 8.1 mph - N/A   Clear
12:50 PM 89.6 °F 98.2 °F 73.4 °F 59% 29.92 in - WNW 8.1 mph - N/A   Clear
1:20 PM 89.6 °F 98.2 °F 73.4 °F 59% 29.89 in - West 13.8 mph - N/A   Clear
1:50 PM 89.6 °F 98.2 °F 73.4 °F 59% 29.89 in - WNW 12.7 mph - N/A   Clear
2:20 PM 89.6 °F 98.2 °F 73.4 °F 59% 29.89 in - WNW 12.7 mph - N/A   Clear
2:50 PM 89.6 °F 96.2 °F 71.6 °F 55% 29.89 in - NW 10.4 mph - N/A   Clear
3:00 PM 90 °F - 73 °F 48% 29.89 in 6 mi NW 10.4 mph - -  
3:20 PM 89.6 °F 96.2 °F 71.6 °F 55% 29.86 in - NW 11.5 mph - N/A   Clear
3:50 PM 89.6 °F 96.2 °F 71.6 °F 55% 29.86 in - NW 10.4 mph - N/A   Clear
4:20 PM 89.6 °F 94.7 °F 69.8 °F 52% 29.86 in - NW 10.4 mph - N/A   Clear
4:50 PM 87.8 °F 92.6 °F 69.8 °F 55% 29.86 in - NW 11.5 mph - N/A   Clear
5:20 PM 87.8 °F 92.6 °F 69.8 °F 55% 29.86 in - NW 11.5 mph - N/A   Clear
5:50 PM 86.0 °F 91.8 °F 71.6 °F 62% 29.86 in - NNW 9.2 mph - N/A   Clear
6:00 PM 87 °F - 71 °F 49% 29.88 in 6 mi NNW 9.2 mph - -  
6:20 PM 86.0 °F 91.8 °F 71.6 °F 62% 29.86 in - NNW 11.5 mph - N/A   Clear
6:50 PM 84.2 °F 89.6 °F 71.6 °F 66% 29.89 in - North 8.1 mph - N/A   Clear
7:20 PM 84.2 °F 89.6 °F 71.6 °F 66% 29.89 in - North 8.1 mph - N/A   Clear
7:50 PM 82.4 °F 88.2 °F 73.4 °F 74% 29.89 in - North 5.8 mph - N/A   Clear
8:20 PM 82.4 °F 88.2 °F 73.4 °F 74% 29.89 in - North 4.6 mph - N/A   Clear
8:50 PM 82.4 °F 87.2 °F 71.6 °F 70% 29.89 in - North 4.6 mph - N/A   Clear
9:20 PM 82.4 °F 87.2 °F 71.6 °F 70% 29.89 in - Variable 3.5 mph - N/A   Clear
9:50 PM 80.6 °F 85.4 °F 73.4 °F 79% 29.89 in - Variable 3.5 mph - N/A   Clear
10:20 PM 80.6 °F 85.4 °F 73.4 °F 79% 29.89 in - Variable 2.3 mph - N/A   Clear
10:50 PM 78.8 °F - 73.4 °F 83% 29.89 in 6.2 mi Variable 3.5 mph - N/A   Partly Cloudy
11:20 PM 80.6 °F 85.4 °F 73.4 °F 79% 29.89 in 6.2 mi Variable 2.3 mph - N/A   Scattered Clouds
11:50 PM 78.8 °F - 73.4 °F 83% 29.89 in 6.2 mi Variable 2.3 mph - N/A   Scattered Clouds